Theta_e
341 341 336 334 335 332 329 326 322 319 317 318 317 319 320 320 319 317 318 318 316 313 313 310 307 302 301 304 309 312 313 313 309 310 311 311 310 310 311 310 310 312 310
341 338 335 335 332 329 327 323 319 318 317 316 318 320 320 320 319 319 319 318 316 315 311 307 300 300 303 306 310 310 310 312 311 308 310 310 310 310 310 310 309 310 310
335 334 331 330 329 328 324 320 318 315 316 318 319 320 320 319 318 318 318 317 317 313 307 305 298 300 306 310 311 311 311 311 311 310 310 310 310 309 310 309 309 309 309
330 328 328 326 326 327 322 318 315 315 316 318 320 320 320 319 318 317 317 316 313 308 306 301 298 301 309 310 311 312 311 311 310 310 309 309 310 310 310 310 310 308 309
327 326 324 323 322 323 318 315 315 316 317 318 319 319 319 318 318 318 316 314 309 308 305 297 299 305 308 308 309 311 311 309 309 308 308 308 310 311 310 309 310 309 308
326 324 322 320 319 317 316 316 317 318 318 318 319 318 318 318 318 317 316 309 308 305 300 297 299 303 304 305 308 309 309 307 307 306 307 307 308 309 310 310 310 309 308
323 321 319 317 316 316 316 317 317 318 318 318 318 318 318 318 317 317 314 311 307 302 299 299 300 301 302 303 303 304 306 307 308 307 305 304 304 308 309 308 309 307 308
321 319 317 316 316 316 317 318 318 317 317 317 317 318 318 317 317 315 314 312 304 300 300 300 300 301 301 302 303 303 303 303 303 302 302 304 308 307 308 307 307 306 307
320 318 317 316 316 317 317 316 316 316 315 316 316 316 317 316 316 316 316 311 302 300 300 300 300 301 301 302 302 302 302 302 302 301 303 307 305 303 302 304 307 307 306
319 318 317 317 317 316 315 314 314 314 312 312 312 313 314 314 314 315 315 308 301 300 300 300 300 300 301 301 302 301 301 301 301 301 303 307 299 299 299 300 303 307 306
319 317 316 317 316 316 315 315 313 311 308 306 306 306 307 312 313 313 312 305 301 300 300 300 301 300 300 300 301 301 300 300 300 300 301 300 300 298 297 299 301 304 305
317 316 316 316 316 316 315 313 312 309 304 301 300 300 303 306 307 308 306 303 300 300 300 301 300 299 299 300 300 300 299 300 300 299 299 298 299 297 296 298 299 299 302
316 316 316 316 315 315 314 312 309 306 301 299 299 299 299 300 302 303 303 302 300 301 301 301 299 299 298 299 299 299 298 298 298 298 298 297 298 297 296 297 299 298 299
316 316 315 315 313 313 313 313 310 304 301 300 300 299 299 299 299 300 300 300 300 301 301 301 300 298 297 298 298 298 297 296 296 297 297 297 297 296 295 295 296 297 297
316 316 315 314 313 312 312 312 312 309 305 303 303 302 301 299 299 299 299 301 301 300 299 299 299 298 296 296 297 296 296 295 295 296 296 296 296 295 294 294 295 295 294
315 314 312 311 311 312 312 312 313 313 311 306 306 307 303 300 298 298 300 300 299 299 299 297 297 297 296 295 295 295 295 294 294 295 294 294 294 293 293 293 293 294 293
312 310 309 309 308 308 308 309 309 310 308 307 307 303 300 297 298 299 299 298 298 298 297 295 295 295 294 294 293 294 293 292 292 293 293 293 293 293 292 292 292 293 293
309 307 307 306 307 307 308 309 310 308 306 305 303 298 296 297 298 298 298 297 296 295 295 294 293 293 292 292 292 292 293 292 292 292 292 292 292 291 291 291 291 292 292
310 307 307 307 307 308 307 306 307 306 303 297 293 294 295 296 297 297 296 296 294 293 293 292 291 291 290 290 290 291 292 291 291 291 291 291 291 291 291 291 291 291 291
309 308 308 306 304 302 301 302 299 298 296 293 293 295 295 296 296 296 295 294 293 293 292 291 290 289 288 287 289 290 291 291 290 290 290 290 290 290 290 290 290 290 290
306 306 307 305 303 302 301 300 299 297 295 293 294 296 297 297 295 295 294 293 293 292 291 290 289 287 286 287 290 290 290 290 290 289 289 289 289 289 289 289 289 289 289
307 306 306 305 303 302 302 301 300 298 295 294 295 296 296 296 294 294 294 293 292 291 291 290 288 285 287 288 289 289 289 289 289 288 288 289 289 289 289 289 289 289 289
311 308 306 305 304 303 302 301 300 297 294 295 296 295 295 295 294 293 292 292 291 290 290 288 286 285 286 288 288 289 289 288 288 288 288 288 288 289 288 288 288 288 288
310 308 307 305 304 303 302 300 298 296 296 298 298 296 295 294 293 293 292 291 290 290 288 286 285 285 286 287 288 289 289 288 287 288 287 287 288 288 288 287 287 287 287
310 309 308 306 306 304 303 301 299 298 299 298 298 297 294 294 293 292 291 291 290 289 286 284 284 284 285 287 288 288 288 288 287 287 287 287 287 288 287 287 287 286 286
310 310 309 307 306 305 304 302 301 301 300 298 297 295 294 293 293 292 291 291 289 288 287 284 284 284 284 286 287 287 287 287 287 287 287 287 287 287 287 286 286 286 286
Wind_Speed
33 36 32 33 34 32 31 30 29 26 25 24 23 21 21 21 20 19 18 15 15 13 10 10 12 10 9 7 6 5 5 2 1 3 8 15 20 25 30 31 27 24 27
27 33 36 38 37 34 32 32 30 28 25 24 24 22 21 21 19 18 17 13 13 10 9 11 13 11 10 8 6 5 5 4 3 4 9 14 18 22 26 29 30 24 25
34 39 39 39 38 37 35 33 30 28 26 25 24 23 21 21 20 17 14 11 12 9 8 11 12 11 10 8 7 7 6 4 5 7 9 15 16 22 25 28 30 28 24
36 37 40 39 43 40 37 34 31 28 26 25 24 23 21 21 20 17 15 14 13 10 8 11 12 11 9 7 7 7 5 6 6 8 10 13 14 18 20 26 26 29 28
38 36 34 36 38 39 38 34 31 29 27 26 25 23 23 21 20 19 15 13 13 10 7 11 13 10 8 6 6 6 4 8 8 9 11 11 12 16 20 24 23 24 24
36 33 32 35 37 40 38 36 33 29 26 26 26 25 23 21 19 17 14 14 12 10 8 11 12 11 10 8 4 5 4 6 8 8 8 10 17 18 19 21 19 15 8
34 31 33 34 33 38 39 35 32 32 30 28 26 24 23 22 19 16 14 13 12 10 11 12 12 12 11 11 9 9 8 7 7 7 11 11 12 16 17 22 24 25 12
33 33 34 32 32 35 37 35 35 33 32 30 26 24 24 21 18 16 14 13 11 12 12 13 12 12 14 12 10 13 16 15 13 12 12 11 13 15 17 18 21 24 13
36 36 36 37 32 33 38 38 38 35 31 29 26 23 22 20 17 16 15 14 11 12 12 11 10 12 13 12 11 12 14 15 13 16 14 11 16 17 18 17 19 23 10
39 37 39 41 38 32 38 39 35 30 27 25 23 21 19 19 17 15 14 14 12 12 11 9 9 10 11 12 12 13 15 14 14 15 15 14 19 20 19 18 13 13 14
35 38 37 40 36 37 38 36 33 29 27 25 24 20 19 17 17 17 16 13 12 13 8 8 8 9 11 12 12 13 14 12 15 18 17 13 17 24 22 19 17 13 13
31 31 32 41 38 38 38 35 32 31 30 27 26 21 20 19 16 16 16 10 11 10 7 8 12 10 10 11 12 13 13 12 15 17 19 20 19 23 25 21 19 19 16
25 27 32 38 37 38 40 36 34 33 32 30 28 25 21 18 17 16 15 11 11 9 10 16 15 11 11 11 12 14 13 15 16 18 20 20 19 21 23 20 19 20 19
33 30 29 39 35 32 35 35 34 33 31 30 28 26 22 18 17 16 14 12 14 16 15 16 13 12 12 11 13 16 14 16 17 18 20 20 17 20 26 24 24 23 24
33 30 29 32 31 32 30 30 33 32 35 34 29 27 24 19 16 15 14 18 19 18 18 16 13 12 11 12 14 14 14 13 17 17 19 19 20 22 26 25 24 24 25
32 29 30 35 36 35 34 29 29 29 26 25 23 20 16 17 18 18 19 20 18 16 13 13 13 11 11 10 11 13 13 14 16 17 20 19 20 21 23 25 25 23 25
28 31 32 33 33 32 30 30 26 23 25 22 19 15 16 21 18 20 22 19 14 10 14 13 12 12 11 10 10 11 12 14 15 17 19 19 19 19 22 24 23 22 24
29 29 31 31 32 31 31 31 29 26 22 20 19 19 20 20 21 22 21 18 16 13 14 13 13 11 9 9 9 10 10 12 16 17 17 19 18 19 21 22 23 22 23
36 29 33 32 32 31 29 28 27 27 27 28 25 23 20 19 21 21 18 15 17 16 14 13 11 8 7 7 8 10 11 14 15 16 17 17 17 19 20 20 21 21 22
31 33 34 33 32 29 29 30 28 30 31 29 28 26 23 23 25 21 17 17 17 16 15 12 10 8 7 8 9 10 11 13 15 16 17 17 17 18 19 20 21 21 21
31 34 34 31 28 27 27 28 29 29 28 28 27 24 26 29 25 22 20 18 18 17 13 10 9 9 9 10 11 10 11 14 14 14 15 16 15 17 17 17 19 20 20
30 28 27 27 26 26 27 27 27 27 27 29 26 24 25 25 24 22 21 20 18 14 11 9 10 10 11 11 11 9 11 12 12 12 13 13 13 14 16 18 19 19 18
24 22 21 23 24 24 25 25 26 26 29 31 26 27 25 24 23 22 23 21 17 13 10 9 10 12 12 11 10 8 11 11 11 11 11 11 12 13 16 17 17 18 18
28 25 24 23 26 26 24 25 27 30 32 28 27 27 26 25 23 23 22 20 16 12 11 10 10 11 12 11 8 9 11 10 10 9 10 9 12 12 14 16 17 17 17
31 28 26 26 27 25 26 27 30 31 27 26 27 30 29 26 25 24 22 18 15 13 12 11 11 10 11 11 10 11 10 8 8 8 8 8 10 12 13 14 14 16 16
29 30 27 27 27 27 27 27 29 29 29 27 30 33 31 28 26 25 23 19 16 14 13 12 11 10 11 11 10 8 6 5 5 5 5 7 9 12 12 12 13 14 15
Wind_Direction
171 169 159 164 168 166 165 163 163 159 158 159 155 153 147 140 135 134 130 129 121 116 99 79 64 43 35 45 55 65 49 10 78 317 345 10 12 10 15 19 19 19 13
162 156 162 170 166 165 165 165 164 159 161 160 152 153 148 144 140 139 137 138 123 114 89 67 50 36 41 57 58 42 29 9 342 314 320 341 359 11 11 17 17 18 11
159 160 161 162 163 164 166 164 160 160 162 160 159 155 154 146 142 139 141 140 132 110 75 54 43 36 49 61 32 14 6 7 352 335 333 341 353 10 4 11 14 12 15
159 157 153 162 164 164 164 162 160 160 160 162 156 159 157 149 145 144 144 137 128 110 66 47 43 40 54 40 33 14 32 22 358 349 343 340 348 5 7 4 358 9 4
149 152 153 156 159 161 159 161 153 157 157 159 154 154 156 152 149 146 149 141 129 109 64 47 43 51 53 36 24 14 25 6 4 3 358 351 353 348 356 5 355 358 1
146 145 149 152 155 156 160 156 160 155 158 163 156 157 155 154 156 151 151 136 121 97 70 56 53 52 55 48 46 28 357 345 0 360 355 346 353 352 357 358 355 349 339
138 143 145 147 152 154 160 158 158 162 163 157 156 156 148 148 154 155 154 139 117 94 74 70 66 57 51 55 64 65 60 50 47 18 12 5 352 4 3 5 3 356 341
141 143 145 148 149 155 156 158 162 164 162 158 156 157 153 154 161 158 156 144 117 94 86 75 65 55 47 48 61 71 66 59 51 49 39 25 34 27 18 14 9 5 10
145 147 148 151 150 153 155 162 163 161 161 157 162 163 163 161 164 167 167 148 122 102 96 78 58 53 47 47 60 63 58 56 64 55 49 63 52 31 15 10 12 15 355
149 153 157 154 154 161 160 160 159 161 156 157 158 169 169 169 172 173 172 153 123 112 104 86 60 56 54 51 55 60 60 48 52 53 62 71 47 37 27 25 13 14 6
150 157 154 149 158 162 159 159 156 152 149 148 149 153 158 154 157 171 167 147 131 121 117 96 82 75 58 56 62 65 62 57 62 62 62 60 44 35 32 38 35 31 19
148 152 147 148 157 161 156 155 154 152 147 143 142 141 138 141 149 157 154 141 128 126 127 113 113 90 66 65 69 71 64 64 67 62 58 49 42 36 31 39 51 55 49
152 139 149 146 153 157 154 151 150 152 150 149 150 143 135 135 134 137 148 150 135 133 124 127 115 98 81 73 69 69 64 60 61 59 54 51 50 43 33 36 44 49 53
142 150 155 143 151 151 153 153 153 156 157 158 155 146 143 140 133 142 145 140 142 130 127 135 129 105 86 80 74 71 68 62 60 63 59 58 56 45 39 37 40 43 43
145 153 144 145 151 151 150 155 164 171 172 166 162 156 148 144 148 145 152 147 142 139 134 129 121 114 91 81 78 73 66 62 58 63 61 58 53 50 40 38 40 43 43
146 152 148 148 153 157 157 157 171 175 178 175 165 154 138 142 147 149 149 144 144 149 143 125 114 114 103 89 77 69 67 64 60 65 63 59 55 54 45 42 41 45 42
150 142 139 146 151 153 157 159 152 166 175 176 163 148 147 144 148 147 146 144 145 163 139 130 124 123 114 92 78 75 70 70 68 66 65 62 60 58 47 43 42 47 47
131 131 138 146 151 157 164 164 164 165 156 153 158 149 150 146 145 146 145 141 133 133 134 136 128 122 108 92 84 84 80 73 70 68 66 62 64 60 50 46 44 43 50
139 142 149 153 158 160 160 161 162 162 157 149 146 147 150 151 149 151 152 148 144 140 140 134 128 120 105 93 92 96 86 82 70 65 64 60 65 63 56 48 52 55 57
144 155 156 155 155 155 157 156 156 155 153 154 157 157 163 162 158 160 154 150 150 146 145 137 128 115 108 108 109 106 98 86 74 68 67 64 67 63 58 54 53 60 57
146 153 158 152 154 157 162 160 162 159 159 162 162 166 169 164 159 160 160 160 157 151 146 136 121 116 109 113 115 114 103 90 80 72 70 69 73 68 63 64 61 61 62
145 148 154 153 156 164 169 173 168 170 169 165 163 162 166 160 155 158 165 163 159 150 142 138 130 126 116 115 112 112 103 92 83 74 71 71 75 74 69 66 63 63 62
159 149 152 156 160 167 173 178 177 177 173 166 161 165 167 161 160 158 161 160 157 149 145 143 141 133 123 115 110 108 102 90 81 79 74 70 69 80 73 69 64 64 65
159 158 162 154 160 161 167 172 178 174 167 165 168 170 168 168 163 162 160 157 153 152 147 147 143 136 132 123 111 106 101 87 80 88 80 76 74 89 80 70 67 63 65
169 166 161 161 160 165 171 174 174 171 173 174 179 178 174 170 168 162 162 160 154 150 147 146 140 134 133 127 117 111 105 90 78 83 96 81 81 85 85 75 70 67 65
173 172 170 168 168 172 172 171 177 183 180 179 181 178 177 174 171 167 164 163 160 156 151 146 143 142 142 141 134 121 109 87 71 76 111 98 90 88 86 80 70 69 68